Munster, IL

8:28 AM CDT on July 29, 2016 (GMT -0500)
Lansing Municipal

Weather History for KIGQ - October, 2012

Change the Weather History Date:

Sunday, October 7, 2012

  Actual Average (KMDW) Record (KMDW)
Temperature  
Mean Temperature 40 °F 58 °F  
Max Temperature 50 °F 66 °F 88 °F (2007)
Min Temperature 30 °F 48 °F 31 °F (2000)
Degree Days  
Heating Degree Days 26 8  
Month to date heating degree days 52  
Since 1 July heating degree days 134  
Cooling Degree Days 0 1  
Month to date cooling degree days 7  
Year to date cooling degree days 1036  
Moisture  
Dew Point 26 °F    
Average Humidity 56    
Maximum Humidity 75    
Minimum Humidity 31    
Precipitation  
Precipitation 0.00 in 0.10 in 1.26 in (1930)
Month to date precipitation 0.70  
Year to date precipitation 30.56  
Sea Level Pressure  
Sea Level Pressure 30.16 in    
Wind  
Wind Speed 5 mph (West)    
Max Wind Speed 13 mph    
Max Gust Speed 18 mph    
Visibility 10 miles    
Events      
T = Trace of Precipitation, MM = Missing Value Source: NWS Daily Summary

Daily Weather History Graph

Daily Weather History Graph

Search for Another Location

Airport or City:

Trip Planner

Search our weather history database for the weather conditions in past years. The results will help you decide how hot, cold, wet, or windy it might be!

Date:

Astronomy

Oct. 07, 2012 Rise Set
Actual Time 6:53 AM CDT 6:21 PM CDT
Civil Twilight 6:26 AM CDT 6:48 PM CDT
Nautical Twilight 5:54 AM CDT 7:20 PM CDT
Astronomical Twilight 5:21 AM CDT 7:52 PM CDT
Moon 11:29 PM CDT (10/7) 1:33 PM CDT (10/7)
Length of Visible Light 12h 22m
Length of Day
11h 27m
Waning Gibbous, 56% of the Moon is Illuminated
Oct 7
Waning Gibbous
Oct 8
Last Quarter
Oct 15
New
Oct 21
First Quarter
Oct 29
Full

Hourly Weather History & Observations

Time (CDT) Temp. Windchill Dew Point Humidity Pressure Visibility Wind Dir Wind Speed Gust Speed Precip Events Conditions
12:15 AM 42.8 °F 40.1 °F 28.8 °F 58% 30.16 in 10.0 mi WNW 4.6 mph - N/A   Overcast
12:35 AM 42.4 °F 39.6 °F 28.9 °F 59% 30.16 in 10.0 mi WNW 4.6 mph - N/A   Overcast
12:55 AM 42.4 °F 40.7 °F 28.9 °F 59% 30.16 in 10.0 mi WNW 3.5 mph - N/A   Overcast
1:15 AM 41.9 °F 39.0 °F 29.3 °F 61% 30.16 in 10.0 mi WNW 4.6 mph - N/A   Overcast
1:35 AM 41.4 °F 38.4 °F 29.5 °F 63% 30.16 in 10.0 mi WNW 4.6 mph - N/A   Overcast
1:55 AM 41.0 °F 39.0 °F 30.2 °F 65% 30.16 in 10.0 mi WNW 3.5 mph - N/A   Mostly Cloudy
2:15 AM 40.6 °F 37.5 °F 29.7 °F 65% 30.16 in 10.0 mi West 4.6 mph - N/A   Overcast
2:35 AM 41.0 °F 37.1 °F 29.8 °F 64% 30.15 in 10.0 mi West 5.8 mph - N/A   Overcast
2:55 AM 41.0 °F 38.0 °F 29.8 °F 64% 30.15 in 10.0 mi WNW 4.6 mph - N/A   Overcast
3:15 AM 41.0 °F 38.0 °F 29.8 °F 64% 30.15 in 10.0 mi West 4.6 mph - N/A   Overcast
3:35 AM 41.2 °F 37.3 °F 29.8 °F 64% 30.15 in 10.0 mi West 5.8 mph - N/A   Overcast
3:55 AM 41.0 °F 38.0 °F 29.8 °F 64% 30.15 in 10.0 mi West 4.6 mph - N/A   Overcast
4:15 AM 40.6 °F 36.7 °F 29.3 °F 64% 30.15 in 10.0 mi West 5.8 mph - N/A   Overcast
4:35 AM 40.1 °F 38.0 °F 29.7 °F 66% 30.14 in 10.0 mi WNW 3.5 mph - N/A   Overcast
4:55 AM 39.4 °F 36.1 °F 29.5 °F 68% 30.14 in 10.0 mi WNW 4.6 mph - N/A   Scattered Clouds
5:15 AM 39.2 °F 35.9 °F 29.3 °F 68% 30.14 in 10.0 mi West 4.6 mph - N/A   Scattered Clouds
5:35 AM 39.2 °F 35.9 °F 29.3 °F 68% 30.14 in 10.0 mi WNW 4.6 mph - N/A   Scattered Clouds
5:55 AM 38.3 °F 34.8 °F 29.3 °F 70% 30.14 in 10.0 mi West 4.6 mph - N/A   Clear
6:15 AM 38.1 °F 33.7 °F 29.3 °F 71% 30.14 in 10.0 mi West 5.8 mph - N/A   Clear
6:35 AM 37.8 °F 32.5 °F 29.3 °F 72% 30.14 in 10.0 mi West 6.9 mph - N/A   Clear
6:55 AM 37.4 °F 33.8 °F 29.3 °F 73% 30.15 in 10.0 mi WNW 4.6 mph - N/A   Clear
7:15 AM 37.4 °F 32.8 °F 29.1 °F 72% 30.15 in 10.0 mi West 5.8 mph - N/A   Clear
7:35 AM 37.4 °F 32.8 °F 29.7 °F 74% 30.15 in 10.0 mi WNW 5.8 mph - N/A   Clear
7:55 AM 38.3 °F 33.2 °F 29.5 °F 71% 30.16 in 10.0 mi West 6.9 mph - N/A   Clear
8:15 AM 39.2 °F 34.2 °F 30.0 °F 70% 30.16 in 10.0 mi WNW 6.9 mph - N/A   Clear
8:35 AM 39.4 °F 34.5 °F 29.7 °F 68% 30.16 in 10.0 mi WNW 6.9 mph - N/A   Clear
8:55 AM 39.4 °F 33.2 °F 29.5 °F 68% 30.17 in 10.0 mi WNW 9.2 mph - N/A   Clear
9:15 AM 41.2 °F 36.0 °F 29.8 °F 64% 30.17 in 10.0 mi WNW 8.1 mph - N/A   Scattered Clouds
9:35 AM 43.9 °F 38.8 °F 29.7 °F 57% 30.17 in 10.0 mi NW 9.2 mph - N/A   Clear
9:55 AM 45.5 °F 41.3 °F 29.1 °F 53% 30.17 in 10.0 mi WNW 8.1 mph - N/A   Clear
10:15 AM 46.9 °F - 27.7 °F 47% 30.18 in 10.0 mi WNW 6.9 mph - N/A   Clear
10:35 AM 48.2 °F - 26.6 °F 43% 30.18 in 10.0 mi West 8.1 mph - N/A   Scattered Clouds
10:55 AM 47.1 °F - 26.2 °F 44% 30.17 in 10.0 mi WNW 8.1 mph - N/A   Mostly Cloudy
11:15 AM 48.2 °F - 25.0 °F 40% 30.18 in 10.0 mi WNW 8.1 mph - N/A   Scattered Clouds
11:35 AM 48.6 °F - 24.8 °F 39% 30.18 in 10.0 mi WNW 12.7 mph - N/A   Scattered Clouds
11:55 AM 48.0 °F - 23.5 °F 38% 30.18 in 10.0 mi WNW 8.1 mph - N/A   Scattered Clouds
12:15 PM 47.5 °F - 23.5 °F 39% 30.18 in 10.0 mi WNW 5.8 mph - N/A   Overcast
12:35 PM 47.7 °F - 23.2 °F 38% 30.18 in 10.0 mi WNW 5.8 mph - N/A   Overcast
12:55 PM 49.3 °F - 24.1 °F 37% 30.17 in 10.0 mi West 10.4 mph 16.1 mph N/A   Overcast
1:15 PM 48.0 °F - 25.0 °F 41% 30.16 in 10.0 mi West 10.4 mph - N/A   Overcast
1:35 PM 47.7 °F - 24.8 °F 41% 30.16 in 10.0 mi WNW 9.2 mph - N/A   Overcast
1:55 PM 48.0 °F - 23.5 °F 38% 30.16 in 10.0 mi WNW 11.5 mph - N/A   Overcast
2:15 PM 47.8 °F - 22.5 °F 37% 30.16 in 10.0 mi WNW 6.9 mph - N/A   Overcast
2:35 PM 48.2 °F - 22.3 °F 36% 30.16 in 10.0 mi West 8.1 mph - N/A   Overcast
2:55 PM 49.5 °F - 22.5 °F 35% 30.15 in 10.0 mi SW 10.4 mph 16.1 mph N/A   Mostly Cloudy
3:15 PM 48.4 °F - 21.2 °F 34% 30.15 in 10.0 mi West 9.2 mph - N/A   Mostly Cloudy
3:35 PM 49.1 °F - 21.0 °F 33% 30.14 in 10.0 mi Calm Calm - N/A   Mostly Cloudy
3:55 PM 48.6 °F - 20.5 °F 33% 30.14 in 10.0 mi NW 9.2 mph - N/A   Mostly Cloudy
4:15 PM 49.6 °F - 20.1 °F 31% 30.13 in 10.0 mi NW 9.2 mph - N/A   Scattered Clouds
4:35 PM 49.1 °F - 19.9 °F 32% 30.14 in 10.0 mi West 8.1 mph - N/A   Clear
4:55 PM 48.4 °F - 19.0 °F 31% 30.13 in 10.0 mi West 12.7 mph - N/A   Clear
5:15 PM 47.8 °F - 19.0 °F 32% 30.14 in 10.0 mi West 8.1 mph - N/A   Clear
5:35 PM 47.5 °F - 19.8 °F 33% 30.14 in 10.0 mi West 8.1 mph - N/A   Clear
5:55 PM 46.6 °F - 19.9 °F 35% 30.14 in 10.0 mi West 8.1 mph 18.4 mph N/A   Clear
6:15 PM 44.8 °F 42.4 °F 21.0 °F 39% 30.14 in 10.0 mi West 4.6 mph - N/A   Clear
6:35 PM 43.7 °F 42.1 °F 20.5 °F 40% 30.13 in 10.0 mi WSW 3.5 mph - N/A   Clear
6:55 PM 39.2 °F 35.9 °F 23.0 °F 52% 30.14 in 10.0 mi SW 4.6 mph - N/A   Clear
7:15 PM 36.7 °F 32.9 °F 23.2 °F 58% 30.15 in 10.0 mi SSW 4.6 mph - N/A   Clear
7:35 PM 35.4 °F 30.5 °F 25.0 °F 66% 30.15 in 10.0 mi South 5.8 mph - N/A   Clear
7:55 PM 33.8 °F 29.6 °F 25.0 °F 70% 30.16 in 10.0 mi SSW 4.6 mph - N/A   Clear
8:15 PM 32.9 °F 28.5 °F 24.6 °F 72% 30.16 in 10.0 mi SSW 4.6 mph - N/A   Clear
8:35 PM 34.0 °F 29.8 °F 25.0 °F 70% 30.16 in 10.0 mi SSW 4.6 mph - N/A   Clear
8:55 PM 33.3 °F 30.2 °F 24.6 °F 71% 30.16 in 10.0 mi SSW 3.5 mph - N/A   Clear
9:15 PM 35.6 °F - 24.8 °F 65% 30.16 in 10.0 mi Calm Calm - N/A   Clear
9:35 PM 36.3 °F - 24.1 °F 61% 30.16 in 10.0 mi Calm Calm - N/A   Clear
9:55 PM 35.2 °F - 23.9 °F 63% 30.16 in 10.0 mi Calm Calm - N/A   Clear
10:15 PM 34.9 °F - 23.9 °F 64% 30.16 in 10.0 mi Calm Calm - N/A   Clear
10:35 PM 32.5 °F - 23.7 °F 70% 30.16 in 10.0 mi Calm Calm - N/A   Clear
10:55 PM 32.9 °F - 24.4 °F 71% 30.16 in 10.0 mi Calm Calm - N/A   Clear
11:15 PM 32.7 °F - 24.4 °F 72% 30.17 in 10.0 mi Calm Calm - N/A   Clear
11:35 PM 30.7 °F - 23.5 °F 75% 30.16 in 10.0 mi Calm Calm - N/A   Clear
11:55 PM 32.0 °F - 24.6 °F 74% 30.16 in 10.0 mi Calm Calm - N/A   Clear